Ozark, AL

9:47 AM CDT on October 21, 2017 (GMT -0500)
Cairns Army Air Field

Weather History for KOZR - January, 2013

Change the Weather History Date:

Monday, January 14, 2013

  Actual Average Record
Temperature  
Mean Temperature 71 °F -  
Max Temperature 77 °F 58 °F 77 °F (2007)
Min Temperature 65 °F 36 °F 21 °F (2011)
Cooling Degree Days 6    
Growing Degree Days 21 (Base 50)    
Moisture  
Dew Point 67 °F    
Average Humidity 90    
Maximum Humidity 100    
Minimum Humidity 68    
Precipitation  
Precipitation 0.04 in - - ()
Sea Level Pressure  
Sea Level Pressure 30.08 in    
Wind  
Wind Speed 9 mph (South)    
Max Wind Speed 18 mph    
Max Gust Speed 23 mph    
Visibility 7 miles    
Events Rain    
Averages and records for this station are not official NWS values.
T = Trace of Precipitation, MM = Missing Value Source: NWS Daily Summary

Daily Weather History Graph

Daily Weather History Graph

Search for Another Location

Airport or City:

Trip Planner

Search our weather history database for the weather conditions in past years. The results will help you decide how hot, cold, wet, or windy it might be!

Date:

Astronomy

Jan. 14, 2013 Rise Set
Actual Time 6:42 AM CST 5:02 PM CST
Civil Twilight 6:15 AM CST 5:28 PM CST
Nautical Twilight 5:46 AM CST 5:58 PM CST
Astronomical Twilight 5:16 AM CST 6:27 PM CST
Moon 8:30 AM CST (1/14) 8:29 PM CST (1/14)
Length of Visible Light 11h 12m
Length of Day
10h 19m
Waxing Crescent, 11% of the Moon is Illuminated
Jan 14
Waxing Crescent
Jan 18
First Quarter
Jan 26
Full
Feb 3
Last Quarter
Feb 10
New

Hourly Weather History & Observations

Time (CST) Temp. Dew Point Humidity Pressure Visibility Wind Dir Wind Speed Gust Speed Precip Events Conditions
12:55 AM 68.5 °F 66.7 °F 94% 30.06 in 10.0 mi South 8.1 mph - N/A   Overcast
1:14 AM 68.0 °F 66.2 °F 94% 30.06 in 10.0 mi South 8.1 mph - N/A   Overcast
1:55 AM 68.5 °F 67.1 °F 95% 30.05 in 9.0 mi SSE 6.9 mph - N/A   Overcast
2:55 AM 68.7 °F 67.5 °F 96% 30.06 in 8.0 mi South 8.1 mph - N/A   Overcast
3:31 AM 68.0 °F 68.0 °F 100% 30.06 in 4.0 mi South 8.1 mph - N/A   Overcast
3:46 AM 68.0 °F 68.0 °F 100% 30.06 in 3.0 mi South 6.9 mph - N/A   Light Drizzle
3:49 AM 68.0 °F 68.0 °F 100% 30.06 in 2.5 mi South 8.1 mph - N/A   Light Drizzle
3:55 AM 68.4 °F 67.5 °F 97% 30.05 in 2.0 mi SSE 6.9 mph - 0.00 in   Light Drizzle
4:03 AM 68.0 °F 68.0 °F 100% 30.06 in 2.0 mi SSE 6.9 mph - N/A   Overcast
4:12 AM 68.0 °F 68.0 °F 100% 30.06 in 1.8 mi South 6.9 mph - N/A   Overcast
4:28 AM 68.0 °F 68.0 °F 100% 30.06 in 2.0 mi SSE 6.9 mph - N/A   Overcast
4:40 AM 68.0 °F 68.0 °F 100% 30.06 in 3.0 mi South 6.9 mph - N/A   Overcast
4:47 AM 68.0 °F 68.0 °F 100% 30.06 in 3.0 mi SSE 6.9 mph - N/A   Overcast
4:50 AM 68.0 °F 68.0 °F 100% 30.06 in 3.0 mi South 6.9 mph - N/A   Light Drizzle
4:52 AM 68.0 °F 68.0 °F 100% 30.06 in 2.5 mi South 6.9 mph - N/A   Light Drizzle
4:55 AM 68.2 °F 67.6 °F 98% 30.06 in 2.5 mi SSE 6.9 mph - 0.01 in   Light Drizzle
5:13 AM 68.0 °F 68.0 °F 100% 30.06 in 3.0 mi South 9.2 mph - N/A   Light Drizzle
5:25 AM 68.0 °F 68.0 °F 100% 30.06 in 2.5 mi South 8.1 mph - N/A   Light Drizzle
5:39 AM 68.0 °F 68.0 °F 100% 30.06 in 1.8 mi South 9.2 mph - N/A Rain Light Rain
5:41 AM 68.0 °F 68.0 °F 100% 30.07 in 2.0 mi South 9.2 mph - N/A Rain Light Rain
5:43 AM 68.0 °F 68.0 °F 100% 30.07 in 1.8 mi South 9.2 mph - N/A Rain Light Rain
5:46 AM 68.0 °F 68.0 °F 100% 30.07 in 1.8 mi South 9.2 mph - N/A Rain Light Rain
5:48 AM 68.0 °F 68.0 °F 100% 30.07 in 2.0 mi South 9.2 mph - N/A Rain Light Rain
5:55 AM 68.2 °F 67.6 °F 98% 30.07 in 2.5 mi South 8.1 mph - 0.03 in Rain Light Rain
5:59 AM 68.0 °F 68.0 °F 100% 30.07 in 3.0 mi South 9.2 mph - N/A Rain Light Rain
6:03 AM 68.0 °F 68.0 °F 100% 30.08 in 3.0 mi South 6.9 mph - N/A   Overcast
6:26 AM 68.0 °F 68.0 °F 100% 30.09 in 5.0 mi South 6.9 mph - N/A   Overcast
6:27 AM 68.0 °F 68.0 °F 100% 30.09 in 5.0 mi South 6.9 mph - N/A   Overcast
6:33 AM 68.0 °F 68.0 °F 100% 30.09 in 5.0 mi South 6.9 mph - N/A   Overcast
6:42 AM 68.0 °F 68.0 °F 100% 30.09 in 6.0 mi South 6.9 mph - N/A   Overcast
6:55 AM 68.2 °F 67.6 °F 98% 30.10 in 7.0 mi South 8.1 mph - 0.00 in   Overcast
6:57 AM 68.0 °F 68.0 °F 100% 30.10 in 8.0 mi South 8.1 mph - N/A   Overcast
7:09 AM 68.0 °F 68.0 °F 100% 30.11 in 9.0 mi South 8.1 mph - N/A   Overcast
7:37 AM 68.0 °F 68.0 °F 100% 30.11 in 10.0 mi South 6.9 mph - N/A   Overcast
7:48 AM 68.0 °F 68.0 °F 100% 30.12 in 10.0 mi South 6.9 mph - N/A   Overcast
7:55 AM 68.5 °F 67.5 °F 96% 30.12 in 10.0 mi South 10.4 mph - N/A   Overcast
8:19 AM 69.8 °F 68.0 °F 94% 30.13 in 10.0 mi South 9.2 mph - N/A   Overcast
8:52 AM 69.8 °F 68.0 °F 94% 30.13 in 10.0 mi South 6.9 mph - N/A   Overcast
8:55 AM 70.2 °F 68.0 °F 93% 30.13 in 10.0 mi South 6.9 mph - N/A   Overcast
9:29 AM 69.8 °F 68.0 °F 94% 30.13 in 10.0 mi South 11.5 mph - N/A   Overcast
9:55 AM 71.8 °F 67.1 °F 85% 30.13 in 10.0 mi South 12.7 mph - N/A   Overcast
10:19 AM 71.6 °F 66.2 °F 83% 30.12 in 10.0 mi South 13.8 mph - N/A   Overcast
10:55 AM 72.9 °F 66.6 °F 81% 30.09 in 10.0 mi South 17.3 mph 21.9 mph N/A   Overcast
11:55 AM 73.9 °F 66.4 °F 77% 30.08 in 10.0 mi South 13.8 mph - N/A   Mostly Cloudy
12:30 PM 77.0 °F 66.2 °F 69% 30.06 in 10.0 mi South 15.0 mph - N/A   Scattered Clouds
12:55 PM 76.5 °F 65.1 °F 68% 30.06 in 10.0 mi South 18.4 mph - N/A   Scattered Clouds
1:12 PM 77.0 °F 66.2 °F 69% 30.06 in 10.0 mi SSE 15.0 mph - N/A   Mostly Cloudy
1:18 PM 77.0 °F 66.2 °F 69% 30.05 in 10.0 mi South 13.8 mph - N/A   Mostly Cloudy
1:27 PM 77.0 °F 66.2 °F 69% 30.05 in 10.0 mi South 16.1 mph 21.9 mph N/A   Mostly Cloudy
1:35 PM 77.0 °F 66.2 °F 69% 30.06 in 10.0 mi South 17.3 mph 21.9 mph N/A   Mostly Cloudy
1:36 PM 77.0 °F 66.2 °F 69% 30.06 in 10.0 mi SSE 16.1 mph 21.9 mph N/A   Mostly Cloudy
1:50 PM 77.0 °F 66.2 °F 69% 30.06 in 10.0 mi South 15.0 mph - N/A   Mostly Cloudy
1:53 PM 77.0 °F 66.2 °F 69% 30.06 in 10.0 mi South 16.1 mph 23.0 mph N/A   Mostly Cloudy
1:55 PM 76.6 °F 65.5 °F 68% 30.06 in 10.0 mi South 18.4 mph 23.0 mph N/A   Overcast
2:55 PM 74.8 °F 65.8 °F 73% 30.07 in 10.0 mi South 13.8 mph - N/A   Mostly Cloudy
3:07 PM 75.2 °F 66.2 °F 73% 30.08 in 10.0 mi South 11.5 mph - N/A   Mostly Cloudy
3:38 PM 73.4 °F 64.4 °F 73% 30.09 in 10.0 mi South 16.1 mph - N/A Rain Light Rain
3:55 PM 72.0 °F 66.9 °F 84% 30.09 in 10.0 mi SSW 6.9 mph - 0.00 in Rain Light Rain
4:00 PM 71.6 °F 66.2 °F 83% 30.09 in 10.0 mi SSW 5.8 mph - N/A   Mostly Cloudy
4:01 PM 71.6 °F 66.2 °F 83% 30.09 in 10.0 mi SSW 6.9 mph - N/A   Mostly Cloudy
4:55 PM 72.0 °F 63.9 °F 76% 30.10 in 10.0 mi South 9.2 mph - 0.00 in   Partly Cloudy
5:55 PM 70.5 °F 63.1 °F 77% 30.11 in 10.0 mi SSE 9.2 mph - N/A   Partly Cloudy
6:55 PM 69.4 °F 62.4 °F 78% 30.11 in 10.0 mi South 9.2 mph - N/A   Clear
7:55 PM 68.7 °F 63.3 °F 83% 30.10 in 10.0 mi South 11.5 mph - N/A   Mostly Cloudy
8:55 PM 67.5 °F 63.5 °F 87% 30.10 in 10.0 mi South 8.1 mph - N/A   Mostly Cloudy
9:55 PM 65.7 °F 63.0 °F 91% 30.09 in 10.0 mi SSE 4.6 mph - N/A   Partly Cloudy
10:18 PM 66.2 °F 62.6 °F 88% 30.09 in 10.0 mi South 3.5 mph - N/A   Mostly Cloudy
10:27 PM 66.2 °F 62.6 °F 88% 30.09 in 10.0 mi SSE 4.6 mph - N/A   Mostly Cloudy
10:30 PM 66.2 °F 62.6 °F 88% 30.09 in 10.0 mi SSE 4.6 mph - N/A   Mostly Cloudy
10:55 PM 65.8 °F 63.1 °F 91% 30.09 in 10.0 mi SE 9.2 mph - N/A   Overcast
11:13 PM 66.2 °F 62.6 °F 88% 30.08 in 10.0 mi SSE 10.4 mph - N/A   Overcast
11:25 PM 66.2 °F 64.4 °F 94% 30.08 in 10.0 mi SSE 9.2 mph - N/A   Overcast
11:53 PM 66.2 °F 64.4 °F 94% 30.08 in 10.0 mi SSE 9.2 mph - N/A   Overcast
11:55 PM 65.7 °F 64.2 °F 95% 30.08 in 10.0 mi SSE 6.9 mph - N/A   Overcast